Time,TemperatureF,DewpointF,PressureIn,WindDirection,WindDirectionDegrees,WindSpeedMPH,WindSpeedGustMPH,Humidity,HourlyPrecipIn,Conditions,Clouds,dailyrainin,SoftwareType,DateUTC
2013-08-06 00:01:00,68.6,61.5,16.92,SW,216,0.0,0.0,78,0.00,,,0.00,VWS V13.01,2013-08-06 04:01:00,
2013-08-06 00:02:00,68.6,61.5,16.92,SW,216,0.0,0.0,78,0.00,,,0.00,VWS V13.01,2013-08-06 04:02:00,
2013-08-06 00:07:00,68.6,61.5,16.93,SW,216,0.0,0.0,78,0.00,,,0.00,VWS V13.01,2013-08-06 04:07:00,
2013-08-06 00:12:00,68.7,61.6,30.88,SW,217,0.0,0.0,78,0.00,,,0.00,VWS V13.01,2013-08-06 04:12:00,
2013-08-06 00:17:00,68.7,61.6,30.88,SW,215,0.0,0.0,78,0.00,,,0.00,VWS V13.01,2013-08-06 04:17:00,
2013-08-06 00:22:00,68.8,61.7,30.88,SW,216,0.0,0.0,78,0.00,,,0.00,VWS V13.01,2013-08-06 04:22:00,
2013-08-06 00:27:00,69.1,62.3,30.88,SW,216,0.0,1.0,79,0.00,,,0.00,VWS V13.01,2013-08-06 04:27:00,
2013-08-06 00:32:00,69.4,62.6,30.88,SW,216,0.0,1.0,79,0.00,,,0.00,VWS V13.01,2013-08-06 04:32:00,
2013-08-06 00:37:00,69.9,63.1,30.88,SW,215,0.0,1.0,79,0.00,,,0.00,VWS V13.01,2013-08-06 04:37:00,
2013-08-06 00:42:00,70.1,62.9,30.88,SW,216,0.0,0.0,78,0.00,,,0.00,VWS V13.01,2013-08-06 04:42:00,
2013-08-06 00:47:00,70.3,63.1,18.62,SW,215,0.0,1.0,78,0.00,,,0.00,VWS V13.01,2013-08-06 04:47:00,
2013-08-06 00:52:00,70.4,63.2,18.62,SW,216,0.0,2.0,78,0.00,,,0.00,VWS V13.01,2013-08-06 04:52:00,
2013-08-06 00:57:00,70.6,63.4,18.62,SW,216,0.0,0.0,78,0.00,,,0.00,VWS V13.01,2013-08-06 04:57:00,
2013-08-06 01:02:00,70.6,63.4,30.88,SW,215,0.0,0.0,78,0.00,,,0.00,VWS V13.01,2013-08-06 05:02:00,
2013-08-06 01:07:00,70.5,63.3,30.88,SW,215,0.0,0.0,78,0.00,,,0.00,VWS V13.01,2013-08-06 05:07:00,
2013-08-06 01:12:00,70.5,63.3,30.88,ESE,109,0.0,2.0,78,0.00,,,0.00,VWS V13.01,2013-08-06 05:12:00,
2013-08-06 01:17:00,70.6,63.4,30.88,ESE,110,1.0,2.0,78,0.00,,,0.00,VWS V13.01,2013-08-06 05:17:00,
2013-08-06 01:22:00,70.6,63.4,30.88,ESE,110,0.0,0.0,78,0.00,,,0.00,VWS V13.01,2013-08-06 05:22:00,
2013-08-06 01:27:00,70.7,63.9,30.88,ESE,109,0.0,1.0,79,0.00,,,0.00,VWS V13.01,2013-08-06 05:27:00,
2013-08-06 01:32:00,70.8,63.6,30.88,ESE,109,1.0,2.0,78,0.00,,,0.00,VWS V13.01,2013-08-06 05:32:00,
2013-08-06 01:37:00,70.9,63.7,18.62,ESE,110,0.0,1.0,78,0.00,,,0.00,VWS V13.01,2013-08-06 05:37:00,
2013-08-06 01:42:00,70.9,63.7,18.62,ESE,110,0.0,2.0,78,0.00,,,0.00,VWS V13.01,2013-08-06 05:42:00,
2013-08-06 01:47:00,71.0,63.8,18.62,ESE,103,1.0,1.0,78,0.00,,,0.00,VWS V13.01,2013-08-06 05:47:00,
2013-08-06 01:52:00,71.0,64.2,18.62,ESE,103,1.0,2.0,79,0.00,,,0.00,VWS V13.01,2013-08-06 05:52:00,
2013-08-06 01:57:00,71.0,63.8,18.62,ESE,103,0.0,0.0,78,0.00,,,0.00,VWS V13.01,2013-08-06 05:57:00,
2013-08-06 02:02:00,71.0,63.8,30.88,ESE,103,0.0,0.0,78,0.00,,,0.00,VWS V13.01,2013-08-06 06:02:00,
2013-08-06 02:07:00,70.9,64.1,30.88,ESE,102,0.0,0.0,79,0.00,,,0.00,VWS V13.01,2013-08-06 06:07:00,
2013-08-06 02:12:00,70.8,64.0,18.62,ESE,103,0.0,0.0,79,0.00,,,0.00,VWS V13.01,2013-08-06 06:12:00,
2013-08-06 02:17:00,70.8,64.0,18.62,ESE,103,0.0,2.0,79,0.00,,,0.00,VWS V13.01,2013-08-06 06:17:00,
2013-08-06 02:22:00,70.8,64.3,30.88,ESE,103,0.0,1.0,80,0.00,,,0.00,VWS V13.01,2013-08-06 06:22:00,
2013-08-06 02:27:00,70.9,64.1,30.88,ESE,102,0.0,1.0,79,0.00,,,0.00,VWS V13.01,2013-08-06 06:27:00,
2013-08-06 02:32:00,71.0,64.5,30.88,ESE,103,0.0,1.0,80,0.00,,,0.00,VWS V13.01,2013-08-06 06:32:00,
2013-08-06 02:37:00,71.0,64.5,30.88,ESE,103,0.0,0.0,80,0.00,,,0.00,VWS V13.01,2013-08-06 06:37:00,
2013-08-06 02:42:00,71.0,64.2,30.88,ESE,103,1.0,1.0,79,0.00,,,0.00,VWS V13.01,2013-08-06 06:42:00,
2013-08-06 02:47:00,71.0,64.2,30.88,ESE,103,0.0,0.0,79,0.00,,,0.00,VWS V13.01,2013-08-06 06:47:00,
2013-08-06 02:52:00,71.0,64.2,30.88,ESE,102,0.0,0.0,79,0.00,,,0.00,VWS V13.01,2013-08-06 06:52:00,
2013-08-06 02:57:00,70.9,64.4,30.88,ESE,103,0.0,0.0,80,0.00,,,0.00,VWS V13.01,2013-08-06 06:57:00,
2013-08-06 03:02:00,70.9,64.4,30.88,ESE,103,0.0,0.0,80,0.00,,,0.00,VWS V13.01,2013-08-06 07:02:00,
2013-08-06 03:07:00,70.8,64.0,30.88,ESE,103,0.0,0.0,79,0.00,,,0.00,VWS V13.01,2013-08-06 07:07:00,
2013-08-06 03:12:00,70.7,64.2,30.88,ESE,103,0.0,0.0,80,0.00,,,0.00,VWS V13.01,2013-08-06 07:12:00,
2013-08-06 03:17:00,70.7,64.2,30.88,ESE,103,0.0,0.0,80,0.00,,,0.00,VWS V13.01,2013-08-06 07:17:00,
2013-08-06 03:22:00,70.6,64.5,30.88,ESE,102,0.0,0.0,81,0.00,,,0.00,VWS V13.01,2013-08-06 07:22:00,
2013-08-06 03:27:00,70.6,64.5,30.88,ESE,103,0.0,0.0,81,0.00,,,0.00,VWS V13.01,2013-08-06 07:27:00,
2013-08-06 03:32:00,70.6,64.5,30.88,ESE,103,0.0,1.0,81,0.00,,,0.00,VWS V13.01,2013-08-06 07:32:00,
2013-08-06 03:37:00,70.5,64.4,30.88,ESE,103,0.0,0.0,81,0.00,,,0.00,VWS V13.01,2013-08-06 07:37:00,
2013-08-06 03:42:00,70.4,64.3,30.88,ESE,102,0.0,0.0,81,0.00,,,0.00,VWS V13.01,2013-08-06 07:42:00,
2013-08-06 03:47:00,70.3,64.2,30.88,ESE,103,0.0,0.0,81,0.00,,,0.00,VWS V13.01,2013-08-06 07:47:00,
2013-08-06 03:52:00,70.2,64.1,30.88,ESE,103,0.0,0.0,81,0.00,,,0.00,VWS V13.01,2013-08-06 07:52:00,
2013-08-06 03:57:00,70.2,64.1,30.88,ESE,102,0.0,0.0,81,0.00,,,0.00,VWS V13.01,2013-08-06 07:57:00,
2013-08-06 04:02:00,70.2,64.1,30.88,ESE,103,0.0,0.0,81,0.00,,,0.00,VWS V13.01,2013-08-06 08:02:00,
2013-08-06 04:07:00,70.1,64.4,30.88,ESE,103,0.0,1.0,82,0.00,,,0.00,VWS V13.01,2013-08-06 08:07:00,
2013-08-06 04:12:00,69.9,64.2,30.88,ESE,103,0.0,0.0,82,0.00,,,0.00,VWS V13.01,2013-08-06 08:12:00,
2013-08-06 04:17:00,69.9,64.5,30.88,ESE,102,0.0,0.0,83,0.00,,,0.00,VWS V13.01,2013-08-06 08:17:00,
2013-08-06 04:22:00,69.9,64.5,30.88,ESE,103,0.0,1.0,83,0.00,,,0.00,VWS V13.01,2013-08-06 08:22:00,
2013-08-06 04:27:00,69.9,64.5,30.88,ESE,103,0.0,0.0,83,0.00,,,0.00,VWS V13.01,2013-08-06 08:27:00,
2013-08-06 04:32:00,70.0,64.6,30.88,ESE,102,0.0,1.0,83,0.00,,,0.00,VWS V13.01,2013-08-06 08:32:00,
2013-08-06 04:37:00,70.0,64.6,30.88,ESE,103,0.0,1.0,83,0.00,,,0.00,VWS V13.01,2013-08-06 08:37:00,
2013-08-06 04:42:00,70.0,64.9,30.88,ESE,102,0.0,1.0,84,0.00,,,0.00,VWS V13.01,2013-08-06 08:42:00,
2013-08-06 04:47:00,70.0,64.9,30.88,ESE,103,0.0,1.0,84,0.00,,,0.00,VWS V13.01,2013-08-06 08:47:00,
2013-08-06 04:52:00,69.9,65.2,30.88,ESE,102,0.0,0.0,85,0.00,,,0.00,VWS V13.01,2013-08-06 08:52:00,
2013-08-06 04:57:00,69.8,65.1,30.88,ESE,103,0.0,0.0,85,0.00,,,0.00,VWS V13.01,2013-08-06 08:57:00,
2013-08-06 05:02:00,69.6,64.9,30.88,ESE,102,0.0,1.0,85,0.00,,,0.00,VWS V13.01,2013-08-06 09:02:00,
2013-08-06 05:07:00,69.5,65.1,30.88,ESE,103,0.0,2.0,86,0.00,,,0.00,VWS V13.01,2013-08-06 09:07:00,
2013-08-06 05:12:00,69.4,65.0,30.88,ESE,103,0.0,2.0,86,0.00,,,0.00,VWS V13.01,2013-08-06 09:12:00,
2013-08-06 05:17:00,69.4,65.4,30.88,ESE,102,0.0,3.0,87,0.00,,,0.00,VWS V13.01,2013-08-06 09:17:00,
2013-08-06 05:22:00,69.4,65.4,30.88,ESE,106,0.0,3.0,87,0.00,,,0.00,VWS V13.01,2013-08-06 09:22:00,
2013-08-06 05:27:00,69.3,65.3,30.88,ESE,106,0.0,2.0,87,0.00,,,0.00,VWS V13.01,2013-08-06 09:27:00,
2013-08-06 05:32:00,69.2,65.2,30.88,ESE,106,1.0,1.0,87,0.00,,,0.00,VWS V13.01,2013-08-06 09:32:00,
2013-08-06 05:37:00,69.2,65.2,30.88,ESE,102,0.0,3.0,87,0.00,,,0.00,VWS V13.01,2013-08-06 09:37:00,
2013-08-06 05:42:00,69.1,65.4,30.88,ENE,68,3.0,3.0,88,0.00,,,0.00,VWS V13.01,2013-08-06 09:42:00,
2013-08-06 05:47:00,69.0,65.6,30.88,ESE,102,0.0,3.0,89,0.00,,,0.00,VWS V13.01,2013-08-06 09:47:00,
2013-08-06 05:52:00,68.9,65.5,30.88,ESE,110,1.0,2.0,89,0.00,,,0.00,VWS V13.01,2013-08-06 09:52:00,
2013-08-06 05:57:00,68.9,65.5,30.88,East,90,0.0,5.0,89,0.00,,,0.00,VWS V13.01,2013-08-06 09:57:00,
2013-08-06 06:02:00,68.8,65.4,30.88,East,99,2.0,4.0,89,0.00,,,0.00,VWS V13.01,2013-08-06 10:02:00,
2013-08-06 06:07:00,68.7,65.7,30.88,East,100,2.0,2.0,90,0.00,,,0.00,VWS V13.01,2013-08-06 10:07:00,
2013-08-06 06:12:00,68.5,65.5,30.88,East,83,1.0,3.0,90,0.00,,,0.00,VWS V13.01,2013-08-06 10:12:00,
2013-08-06 06:17:00,68.4,65.4,30.88,East,84,3.0,3.0,90,0.00,,,0.00,VWS V13.01,2013-08-06 10:17:00,
2013-08-06 06:22:00,68.3,64.9,30.88,East,83,1.0,3.0,89,0.00,,,0.00,VWS V13.01,2013-08-06 10:22:00,
2013-08-06 06:27:00,68.1,64.7,30.88,East,83,1.0,3.0,89,0.00,,,0.00,VWS V13.01,2013-08-06 10:27:00,
2013-08-06 06:32:00,68.1,64.7,30.88,ENE,75,0.0,3.0,89,0.00,,,0.00,VWS V13.01,2013-08-06 10:32:00,
2013-08-06 06:37:00,68.1,64.7,30.88,ENE,75,0.0,0.0,89,0.00,,,0.00,VWS V13.01,2013-08-06 10:37:00,
2013-08-06 06:42:00,68.1,64.4,30.88,ENE,75,0.0,1.0,88,0.00,,,0.00,VWS V13.01,2013-08-06 10:42:00,
2013-08-06 06:47:00,68.1,64.4,19.20,ENE,75,0.0,1.0,88,0.00,,,0.00,VWS V13.01,2013-08-06 10:47:00,
2013-08-06 06:52:00,68.2,64.5,19.20,ENE,75,0.0,1.0,88,0.00,,,0.00,VWS V13.01,2013-08-06 10:52:00,
2013-08-06 06:57:00,68.2,64.5,19.20,ENE,75,0.0,1.0,88,0.00,,,0.00,VWS V13.01,2013-08-06 10:57:00,
2013-08-06 07:02:00,68.3,64.6,19.20,ENE,75,0.0,1.0,88,0.01,,,0.01,VWS V13.01,2013-08-06 11:02:00,
2013-08-06 07:07:00,68.3,64.6,19.20,ENE,75,0.0,0.0,88,0.01,,,0.01,VWS V13.01,2013-08-06 11:07:00,
2013-08-06 07:12:00,68.3,64.6,19.20,ENE,75,1.0,1.0,88,0.01,,,0.01,VWS V13.01,2013-08-06 11:12:00,
2013-08-06 07:17:00,68.3,64.9,19.20,ENE,74,1.0,1.0,89,0.01,,,0.01,VWS V13.01,2013-08-06 11:17:00,
2013-08-06 07:22:00,68.1,64.7,19.20,NE,55,2.0,3.0,89,0.01,,,0.01,VWS V13.01,2013-08-06 11:22:00,
2013-08-06 07:27:00,68.0,64.6,19.20,NE,55,0.0,1.0,89,0.01,,,0.01,VWS V13.01,2013-08-06 11:27:00,
2013-08-06 07:32:00,68.0,65.0,19.20,NE,46,0.0,2.0,90,0.01,,,0.02,VWS V13.01,2013-08-06 11:32:00,
2013-08-06 07:37:00,68.0,65.0,19.20,NE,46,0.0,3.0,90,0.02,,,0.02,VWS V13.01,2013-08-06 11:37:00,
2013-08-06 07:42:00,67.9,64.9,19.20,ENE,71,0.0,3.0,90,0.02,,,0.02,VWS V13.01,2013-08-06 11:42:00,
2013-08-06 07:47:00,67.8,64.8,19.20,ENE,62,0.0,3.0,90,0.02,,,0.02,VWS V13.01,2013-08-06 11:47:00,
2013-08-06 07:52:00,67.8,64.8,19.20,NNE,21,0.0,3.0,90,0.02,,,0.02,VWS V13.01,2013-08-06 11:52:00,
2013-08-06 07:57:00,67.8,64.8,19.20,NNE,21,1.0,3.0,90,0.02,,,0.02,VWS V13.01,2013-08-06 11:57:00,
2013-08-06 07:58:00,67.8,64.8,19.20,NNE,21,1.0,3.0,90,0.02,,,0.02,VWS V13.01,2013-08-06 11:58:00,
2013-08-06 08:03:00,67.9,65.2,19.20,NNE,20,0.0,1.0,91,0.02,,,0.02,VWS V13.01,2013-08-06 12:03:00,
2013-08-06 08:08:00,68.0,65.0,19.20,NNE,19,0.0,1.0,90,0.01,,,0.02,VWS V13.01,2013-08-06 12:08:00,
2013-08-06 08:13:00,68.0,65.3,19.20,NE,37,0.0,3.0,91,0.01,,,0.02,VWS V13.01,2013-08-06 12:13:00,
2013-08-06 08:18:00,68.0,65.3,19.20,NE,36,1.0,1.0,91,0.01,,,0.02,VWS V13.01,2013-08-06 12:18:00,
2013-08-06 08:22:00,68.2,65.5,19.20,NE,38,0.0,3.0,91,0.01,,,0.02,VWS V13.01,2013-08-06 12:22:00,
2013-08-06 08:27:00,68.3,65.6,19.20,NE,38,0.0,2.0,91,0.01,,,0.02,VWS V13.01,2013-08-06 12:27:00,
2013-08-06 08:32:00,68.4,65.7,16.92,NE,52,0.0,4.0,91,0.01,,,0.02,VWS V13.01,2013-08-06 12:32:00,
2013-08-06 08:37:00,68.4,65.7,16.92,NE,52,1.0,2.0,91,0.00,,,0.02,VWS V13.01,2013-08-06 12:37:00,
2013-08-06 08:42:00,68.5,65.8,16.92,NE,52,0.0,1.0,91,0.00,,,0.02,VWS V13.01,2013-08-06 12:42:00,
2013-08-06 08:47:00,68.4,65.4,16.92,NE,45,0.0,3.0,90,0.00,,,0.02,VWS V13.01,2013-08-06 12:47:00,
2013-08-06 08:52:00,68.4,65.4,16.92,NE,45,0.0,1.0,90,0.00,,,0.02,VWS V13.01,2013-08-06 12:52:00,
2013-08-06 08:58:00,68.4,65.4,16.92,NE,45,0.0,2.0,90,0.00,,,0.02,VWS V13.01,2013-08-06 12:58:00,
2013-08-06 09:03:00,68.4,65.4,16.92,NE,49,3.0,3.0,90,0.00,,,0.02,VWS V13.01,2013-08-06 13:03:00,
2013-08-06 09:08:00,68.4,65.4,16.92,NW,317,0.0,4.0,90,0.00,,,0.02,VWS V13.01,2013-08-06 13:08:00,
2013-08-06 09:13:00,68.4,65.4,16.92,ESE,105,1.0,4.0,90,0.00,,,0.02,VWS V13.01,2013-08-06 13:13:00,
2013-08-06 09:18:00,68.3,65.6,16.92,ENE,71,0.0,7.0,91,0.00,,,0.02,VWS V13.01,2013-08-06 13:18:00,
2013-08-06 09:23:00,68.3,65.6,16.92,ESE,105,1.0,5.0,91,0.00,,,0.02,VWS V13.01,2013-08-06 13:23:00,
2013-08-06 09:28:00,68.3,65.6,16.92,ESE,105,2.0,4.0,91,0.00,,,0.02,VWS V13.01,2013-08-06 13:28:00,
2013-08-06 09:33:00,68.3,65.9,16.92,East,101,2.0,3.0,92,0.00,,,0.02,VWS V13.01,2013-08-06 13:33:00,
2013-08-06 09:38:00,68.3,65.3,16.92,ESE,109,2.0,6.0,90,0.00,,,0.02,VWS V13.01,2013-08-06 13:38:00,
2013-08-06 09:43:00,68.4,65.7,16.92,NE,49,2.0,3.0,91,0.00,,,0.02,VWS V13.01,2013-08-06 13:43:00,
2013-08-06 09:47:00,68.5,65.5,30.85,SE,141,4.0,6.0,90,0.00,,,0.02,VWS V13.01,2013-08-06 13:47:00,
2013-08-06 09:53:00,68.4,65.4,30.85,SE,127,1.0,6.0,90,0.00,,,0.02,VWS V13.01,2013-08-06 13:53:00,
2013-08-06 09:57:00,68.4,65.4,30.85,East,82,3.0,5.0,90,0.00,,,0.02,VWS V13.01,2013-08-06 13:57:00,
2013-08-06 10:03:00,68.5,65.5,30.85,ESE,123,0.0,7.0,90,0.00,,,0.02,VWS V13.01,2013-08-06 14:03:00,
2013-08-06 10:08:00,68.5,65.5,30.85,SE,135,2.0,7.0,90,0.00,,,0.02,VWS V13.01,2013-08-06 14:08:00,
2013-08-06 10:13:00,68.5,65.5,30.85,ESE,105,1.0,6.0,90,0.00,,,0.02,VWS V13.01,2013-08-06 14:13:00,
2013-08-06 10:18:00,68.6,65.6,30.85,SE,127,1.0,3.0,90,0.00,,,0.02,VWS V13.01,2013-08-06 14:18:00,
2013-08-06 10:23:00,68.7,65.7,30.85,ENE,76,3.0,5.0,90,0.00,,,0.02,VWS V13.01,2013-08-06 14:23:00,
2013-08-06 10:27:00,68.6,65.2,30.85,SE,126,2.0,4.0,89,0.00,,,0.02,VWS V13.01,2013-08-06 14:27:00,
2013-08-06 10:32:00,68.5,65.5,30.85,East,85,2.0,6.0,90,0.00,,,0.02,VWS V13.01,2013-08-06 14:32:00,
2013-08-06 10:38:00,68.5,65.5,30.85,East,80,3.0,5.0,90,0.00,,,0.02,VWS V13.01,2013-08-06 14:38:00,
2013-08-06 10:43:00,68.3,65.3,30.85,SSE,150,2.0,6.0,90,0.00,,,0.02,VWS V13.01,2013-08-06 14:43:00,
2013-08-06 10:48:00,68.4,65.4,30.85,ENE,65,1.0,6.0,90,0.00,,,0.02,VWS V13.01,2013-08-06 14:48:00,
2013-08-06 10:53:00,68.5,65.8,30.85,East,86,0.0,3.0,91,0.00,,,0.02,VWS V13.01,2013-08-06 14:53:00,
2013-08-06 10:58:00,68.6,65.6,30.85,SSE,148,1.0,4.0,90,0.00,,,0.02,VWS V13.01,2013-08-06 14:58:00,
2013-08-06 11:03:00,68.6,65.6,30.85,East,81,0.0,5.0,90,0.00,,,0.02,VWS V13.01,2013-08-06 15:03:00,
2013-08-06 11:08:00,68.7,65.7,30.85,SE,125,0.0,3.0,90,0.00,,,0.02,VWS V13.01,2013-08-06 15:08:00,
2013-08-06 11:13:00,68.8,65.8,30.85,ESE,111,1.0,3.0,90,0.00,,,0.02,VWS V13.01,2013-08-06 15:13:00,
2013-08-06 11:18:00,68.8,65.8,30.85,ESE,120,3.0,5.0,90,0.00,,,0.02,VWS V13.01,2013-08-06 15:18:00,
2013-08-06 11:23:00,68.8,65.8,30.85,East,94,1.0,5.0,90,0.00,,,0.02,VWS V13.01,2013-08-06 15:23:00,
2013-08-06 11:28:00,68.9,65.8,30.85,ENE,75,3.0,4.0,90,0.00,,,0.02,VWS V13.01,2013-08-06 15:28:00,
2013-08-06 11:33:00,68.9,65.8,30.85,NE,34,6.0,6.0,90,0.00,,,0.02,VWS V13.01,2013-08-06 15:33:00,
2013-08-06 11:38:00,68.9,65.8,30.85,East,101,3.0,4.0,90,0.00,,,0.02,VWS V13.01,2013-08-06 15:38:00,
2013-08-06 11:43:00,68.9,65.8,30.85,SE,132,1.0,6.0,90,0.00,,,0.02,VWS V13.01,2013-08-06 15:43:00,
2013-08-06 11:48:00,69.1,66.1,30.85,SSW,202,4.0,5.0,90,0.00,,,0.02,VWS V13.01,2013-08-06 15:48:00,
2013-08-06 11:53:00,69.3,66.2,30.85,ENE,66,3.0,5.0,90,0.00,,,0.02,VWS V13.01,2013-08-06 15:53:00,
2013-08-06 11:58:00,69.4,66.3,30.85,East,82,1.0,5.0,90,0.00,,,0.02,VWS V13.01,2013-08-06 15:58:00,
2013-08-06 12:03:00,69.5,66.1,30.09,SE,126,0.0,5.0,89,0.00,,,0.02,VWS V13.01,2013-08-06 16:03:00,
2013-08-06 12:08:00,69.6,66.2,30.09,ENE,65,3.0,5.0,89,0.00,,,0.02,VWS V13.01,2013-08-06 16:08:00,
2013-08-06 12:13:00,69.7,66.3,30.09,East,86,1.0,5.0,89,0.00,,,0.02,VWS V13.01,2013-08-06 16:13:00,
2013-08-06 12:18:00,69.9,66.5,30.09,ENE,68,2.0,6.0,89,0.00,,,0.02,VWS V13.01,2013-08-06 16:18:00,
2013-08-06 12:23:00,70.1,66.4,30.09,SE,128,1.0,4.0,88,0.00,,,0.02,VWS V13.01,2013-08-06 16:23:00,
2013-08-06 12:28:00,70.3,66.6,30.09,NE,42,1.0,2.0,88,0.00,,,0.02,VWS V13.01,2013-08-06 16:28:00,
2013-08-06 12:33:00,70.5,66.8,30.09,NE,48,0.0,3.0,88,0.00,,,0.02,VWS V13.01,2013-08-06 16:33:00,
2013-08-06 12:38:00,70.8,66.7,30.09,East,88,3.0,4.0,87,0.00,,,0.02,VWS V13.01,2013-08-06 16:38:00,
2013-08-06 12:43:00,70.6,66.6,30.85,NE,56,2.0,5.0,87,0.00,,,0.02,VWS V13.01,2013-08-06 16:43:00,
2013-08-06 12:48:00,70.7,66.3,30.85,ENE,66,1.0,3.0,86,0.00,,,0.02,VWS V13.01,2013-08-06 16:48:00,
2013-08-06 12:53:00,70.8,66.4,30.85,ENE,66,0.0,3.0,86,0.00,,,0.02,VWS V13.01,2013-08-06 16:53:00,
2013-08-06 12:58:00,71.0,66.6,22.87,East,98,3.0,5.0,86,0.00,,,0.02,VWS V13.01,2013-08-06 16:58:00,
2013-08-06 13:03:00,71.0,66.6,22.87,East,92,0.0,6.0,86,0.00,,,0.02,VWS V13.01,2013-08-06 17:03:00,
2013-08-06 13:08:00,71.3,66.6,22.87,East,92,1.0,2.0,85,0.00,,,0.02,VWS V13.01,2013-08-06 17:08:00,
2013-08-06 13:13:00,71.3,66.6,22.87,ESE,113,2.0,5.0,85,0.00,,,0.02,VWS V13.01,2013-08-06 17:13:00,
2013-08-06 13:18:00,71.4,66.7,22.87,East,84,0.0,2.0,85,0.00,,,0.02,VWS V13.01,2013-08-06 17:18:00,
2013-08-06 13:23:00,71.7,66.9,22.87,East,94,0.0,5.0,85,0.00,,,0.02,VWS V13.01,2013-08-06 17:23:00,
2013-08-06 13:27:00,71.9,66.8,30.85,ESE,119,3.0,4.0,84,0.00,,,0.02,VWS V13.01,2013-08-06 17:27:00,
2013-08-06 13:32:00,71.7,66.6,30.85,ENE,65,3.0,4.0,84,0.00,,,0.02,VWS V13.01,2013-08-06 17:32:00,
2013-08-06 13:37:00,71.5,66.8,18.55,ESE,108,3.0,6.0,85,0.00,,,0.02,VWS V13.01,2013-08-06 17:37:00,
2013-08-06 13:42:00,71.3,66.6,18.55,ENE,76,3.0,5.0,85,0.00,,,0.02,VWS V13.01,2013-08-06 17:42:00,
2013-08-06 13:47:00,71.2,66.5,18.55,East,94,1.0,6.0,85,0.00,,,0.02,VWS V13.01,2013-08-06 17:47:00,
2013-08-06 13:52:00,71.1,66.4,18.55,NE,46,3.0,4.0,85,0.00,,,0.02,VWS V13.01,2013-08-06 17:52:00,
2013-08-06 13:57:00,70.9,66.5,18.55,East,92,2.0,6.0,86,0.00,,,0.02,VWS V13.01,2013-08-06 17:57:00,
2013-08-06 14:02:00,70.8,66.4,18.55,ENE,74,2.0,6.0,86,0.00,,,0.02,VWS V13.01,2013-08-06 18:02:00,
2013-08-06 14:07:00,70.7,66.3,18.55,East,92,1.0,3.0,86,0.00,,,0.02,VWS V13.01,2013-08-06 18:07:00,
2013-08-06 14:12:00,70.8,66.4,23.39,SSE,149,5.0,5.0,86,0.00,,,0.02,VWS V13.01,2013-08-06 18:12:00,
2013-08-06 14:17:00,70.8,66.4,30.85,SE,129,1.0,3.0,86,0.00,,,0.02,VWS V13.01,2013-08-06 18:17:00,
2013-08-06 14:22:00,70.8,66.4,30.85,ENE,57,4.0,4.0,86,0.00,,,0.02,VWS V13.01,2013-08-06 18:22:00,
2013-08-06 14:27:00,70.8,66.4,30.85,East,80,3.0,4.0,86,0.00,,,0.02,VWS V13.01,2013-08-06 18:27:00,
2013-08-06 14:32:00,71.0,66.6,30.85,East,86,3.0,4.0,86,0.00,,,0.02,VWS V13.01,2013-08-06 18:32:00,
2013-08-06 14:37:00,71.0,66.6,30.85,ESE,109,2.0,5.0,86,0.00,,,0.02,VWS V13.01,2013-08-06 18:37:00,
2013-08-06 14:42:00,71.3,66.6,30.85,ENE,78,1.0,3.0,85,0.00,,,0.02,VWS V13.01,2013-08-06 18:42:00,
2013-08-06 14:47:00,71.5,66.8,30.85,SE,146,4.0,7.0,85,0.00,,,0.02,VWS V13.01,2013-08-06 18:47:00,
2013-08-06 14:52:00,71.8,67.1,30.85,ENE,64,2.0,3.0,85,0.00,,,0.02,VWS V13.01,2013-08-06 18:52:00,
2013-08-06 14:57:00,72.2,67.1,30.85,ESE,110,0.0,4.0,84,0.00,,,0.02,VWS V13.01,2013-08-06 18:57:00,
2013-08-06 15:02:00,72.6,67.5,30.85,ESE,109,1.0,3.0,84,0.00,,,0.02,VWS V13.01,2013-08-06 19:02:00,
2013-08-06 15:07:00,72.7,67.2,30.85,SSW,206,2.0,4.0,83,0.00,,,0.02,VWS V13.01,2013-08-06 19:07:00,
2013-08-06 15:12:00,72.6,67.2,30.85,SSE,159,0.0,3.0,83,0.00,,,0.02,VWS V13.01,2013-08-06 19:12:00,
2013-08-06 15:17:00,72.7,67.2,30.85,ENE,61,3.0,3.0,83,0.00,,,0.02,VWS V13.01,2013-08-06 19:17:00,
2013-08-06 15:22:00,72.5,67.1,30.85,ENE,70,2.0,4.0,83,0.00,,,0.02,VWS V13.01,2013-08-06 19:22:00,
2013-08-06 15:27:00,72.3,67.2,30.85,ESE,106,2.0,4.0,84,0.00,,,0.02,VWS V13.01,2013-08-06 19:27:00,
2013-08-06 15:32:00,72.2,67.1,30.85,ESE,106,0.0,2.0,84,0.00,,,0.02,VWS V13.01,2013-08-06 19:32:00,
2013-08-06 15:37:00,72.1,67.0,30.85,ESE,106,0.0,2.0,84,0.00,,,0.02,VWS V13.01,2013-08-06 19:37:00,
2013-08-06 15:42:00,72.1,67.0,30.85,ESE,106,2.0,2.0,84,0.00,,,0.02,VWS V13.01,2013-08-06 19:42:00,
2013-08-06 15:47:00,72.1,67.0,16.93,East,82,3.0,4.0,84,0.00,,,0.02,VWS V13.01,2013-08-06 19:47:00,
2013-08-06 15:52:00,71.8,67.1,16.93,East,86,2.0,3.0,85,0.00,,,0.02,VWS V13.01,2013-08-06 19:52:00,
2013-08-06 15:57:00,71.7,66.9,16.93,ESE,106,1.0,4.0,85,0.00,,,0.02,VWS V13.01,2013-08-06 19:57:00,
2013-08-06 16:02:00,71.6,66.9,16.93,ESE,106,1.0,3.0,85,0.00,,,0.02,VWS V13.01,2013-08-06 20:02:00,
2013-08-06 16:07:00,71.5,66.8,16.93,NNE,28,3.0,5.0,85,0.00,,,0.02,VWS V13.01,2013-08-06 20:07:00,
2013-08-06 16:08:00,71.5,66.8,16.93,NNE,14,3.0,5.0,85,0.00,,,0.02,VWS V13.01,2013-08-06 20:08:00,
2013-08-06 16:13:00,71.3,66.9,16.93,NNE,26,2.0,4.0,86,0.00,,,0.02,VWS V13.01,2013-08-06 20:13:00,
2013-08-06 16:18:00,71.5,66.8,16.93,NNE,26,1.0,4.0,85,0.00,,,0.02,VWS V13.01,2013-08-06 20:18:00,
2013-08-06 16:23:00,71.8,67.1,30.87,NNE,26,0.0,2.0,85,0.00,,,0.02,VWS V13.01,2013-08-06 20:23:00,
2013-08-06 16:28:00,72.1,67.3,30.87,NNE,26,2.0,3.0,85,0.00,,,0.02,VWS V13.01,2013-08-06 20:28:00,
2013-08-06 16:32:00,72.0,67.2,30.87,NNE,27,1.0,1.0,85,0.00,,,0.02,VWS V13.01,2013-08-06 20:32:00,
2013-08-06 16:37:00,71.9,66.8,30.87,NNE,27,1.0,2.0,84,0.00,,,0.02,VWS V13.01,2013-08-06 20:37:00,
2013-08-06 16:42:00,71.9,67.2,30.87,NNE,29,2.0,2.0,85,0.00,,,0.02,VWS V13.01,2013-08-06 20:42:00,
2013-08-06 16:47:00,71.7,66.9,30.87,NNE,28,0.0,1.0,85,0.00,,,0.02,VWS V13.01,2013-08-06 20:47:00,
2013-08-06 16:52:00,71.6,67.2,30.87,NNE,29,0.0,1.0,86,0.00,,,0.02,VWS V13.01,2013-08-06 20:52:00,
2013-08-06 16:57:00,71.4,67.0,30.87,NNE,28,0.0,2.0,86,0.00,,,0.02,VWS V13.01,2013-08-06 20:57:00,
2013-08-06 17:02:00,71.3,66.9,30.87,NNE,29,1.0,1.0,86,0.00,,,0.02,VWS V13.01,2013-08-06 21:02:00,
2013-08-06 17:07:00,71.4,67.0,30.87,NNE,29,0.0,1.0,86,0.00,,,0.02,VWS V13.01,2013-08-06 21:07:00,
2013-08-06 17:12:00,71.4,67.0,30.87,NNE,29,0.0,1.0,86,0.00,,,0.02,VWS V13.01,2013-08-06 21:12:00,
2013-08-06 17:17:00,71.4,67.0,16.93,NNE,29,0.0,1.0,86,0.00,,,0.02,VWS V13.01,2013-08-06 21:17:00,
2013-08-06 17:22:00,71.5,67.1,16.93,NNE,29,1.0,2.0,86,0.00,,,0.02,VWS V13.01,2013-08-06 21:22:00,
2013-08-06 17:27:00,71.5,67.1,16.93,NNE,29,2.0,2.0,86,0.00,,,0.02,VWS V13.01,2013-08-06 21:27:00,
2013-08-06 17:32:00,71.7,67.3,16.93,NNE,19,1.0,2.0,86,0.00,,,0.02,VWS V13.01,2013-08-06 21:32:00,
2013-08-06 17:37:00,71.8,67.1,16.93,NNE,22,0.0,2.0,85,0.00,,,0.02,VWS V13.01,2013-08-06 21:37:00,
2013-08-06 17:42:00,72.0,67.2,16.92,NNE,23,3.0,3.0,85,0.00,,,0.02,VWS V13.01,2013-08-06 21:42:00,
2013-08-06 17:47:00,72.1,67.3,16.92,NNE,19,3.0,4.0,85,0.00,,,0.02,VWS V13.01,2013-08-06 21:47:00,
2013-08-06 17:52:00,72.1,67.3,16.93,NE,48,4.0,4.0,85,0.00,,,0.02,VWS V13.01,2013-08-06 21:52:00,
2013-08-06 17:57:00,72.0,67.2,16.93,East,80,0.0,4.0,85,0.00,,,0.02,VWS V13.01,2013-08-06 21:57:00,
2013-08-06 18:02:00,71.9,67.5,16.93,NNE,24,1.0,4.0,86,0.00,,,0.02,VWS V13.01,2013-08-06 22:02:00,
2013-08-06 18:07:00,71.8,67.4,16.93,SE,142,0.0,7.0,86,0.00,,,0.02,VWS V13.01,2013-08-06 22:07:00,
2013-08-06 18:12:00,71.7,67.3,16.93,NE,44,2.0,4.0,86,0.00,,,0.02,VWS V13.01,2013-08-06 22:12:00,
2013-08-06 18:17:00,71.7,67.3,16.93,NE,41,1.0,2.0,86,0.00,,,0.02,VWS V13.01,2013-08-06 22:17:00,
2013-08-06 18:22:00,71.6,67.2,16.92,ENE,63,0.0,3.0,86,0.00,,,0.02,VWS V13.01,2013-08-06 22:22:00,
2013-08-06 18:27:00,71.7,67.6,16.92,SE,132,3.0,4.0,87,0.00,,,0.02,VWS V13.01,2013-08-06 22:27:00,
2013-08-06 18:32:00,71.6,67.5,16.92,ENE,74,1.0,6.0,87,0.00,,,0.02,VWS V13.01,2013-08-06 22:32:00,
2013-08-06 18:37:00,71.6,67.5,16.92,ENE,76,0.0,2.0,87,0.00,,,0.02,VWS V13.01,2013-08-06 22:37:00,
2013-08-06 18:42:00,71.6,67.5,16.92,NE,55,1.0,2.0,87,0.00,,,0.02,VWS V13.01,2013-08-06 22:42:00,
2013-08-06 18:47:00,71.6,67.5,16.92,ESE,121,2.0,5.0,87,0.00,,,0.02,VWS V13.01,2013-08-06 22:47:00,
2013-08-06 18:52:00,71.5,67.4,16.92,East,96,3.0,3.0,87,0.00,,,0.02,VWS V13.01,2013-08-06 22:52:00,
2013-08-06 18:57:00,71.4,67.3,16.92,SE,124,4.0,4.0,87,0.00,,,0.02,VWS V13.01,2013-08-06 22:57:00,
2013-08-06 19:02:00,71.4,67.3,16.92,NE,46,5.0,6.0,87,0.00,,,0.02,VWS V13.01,2013-08-06 23:02:00,
2013-08-06 19:07:00,71.3,66.9,16.92,NNE,29,3.0,9.0,86,0.00,,,0.02,VWS V13.01,2013-08-06 23:07:00,
2013-08-06 19:12:00,71.4,67.3,16.92,ESE,106,2.0,3.0,87,0.00,,,0.02,VWS V13.01,2013-08-06 23:12:00,
2013-08-06 19:17:00,71.3,67.2,16.92,East,91,4.0,5.0,87,0.00,,,0.02,VWS V13.01,2013-08-06 23:17:00,
2013-08-06 19:22:00,71.3,67.2,16.92,SE,142,1.0,4.0,87,0.00,,,0.02,VWS V13.01,2013-08-06 23:22:00,
2013-08-06 19:27:00,71.2,67.1,16.92,ENE,75,2.0,5.0,87,0.00,,,0.02,VWS V13.01,2013-08-06 23:27:00,
2013-08-06 19:32:00,71.2,67.1,16.92,ENE,61,2.0,5.0,87,0.00,,,0.02,VWS V13.01,2013-08-06 23:32:00,
2013-08-06 19:37:00,71.2,67.1,16.92,ENE,65,0.0,5.0,87,0.00,,,0.02,VWS V13.01,2013-08-06 23:37:00,
2013-08-06 19:42:00,71.2,67.1,16.92,East,98,0.0,3.0,87,0.00,,,0.02,VWS V13.01,2013-08-06 23:42:00,
2013-08-06 19:47:00,71.1,67.0,16.92,East,83,2.0,5.0,87,0.00,,,0.02,VWS V13.01,2013-08-06 23:47:00,
2013-08-06 19:52:00,71.1,67.0,16.92,East,96,0.0,3.0,87,0.00,,,0.02,VWS V13.01,2013-08-06 23:52:00,
2013-08-06 19:57:00,71.1,67.0,16.92,East,96,0.0,2.0,87,0.00,,,0.02,VWS V13.01,2013-08-06 23:57:00,
2013-08-06 20:02:00,71.1,67.0,16.92,ENE,69,0.0,3.0,87,0.00,,,0.02,VWS V13.01,2013-08-07 00:02:00,
2013-08-06 20:07:00,71.1,67.0,16.92,ESE,107,0.0,5.0,87,0.00,,,0.02,VWS V13.01,2013-08-07 00:07:00,
2013-08-06 20:12:00,71.0,66.9,16.92,East,88,0.0,3.0,87,0.00,,,0.02,VWS V13.01,2013-08-07 00:12:00,
2013-08-06 20:17:00,71.0,66.9,16.92,SSE,155,1.0,5.0,87,0.00,,,0.02,VWS V13.01,2013-08-07 00:17:00,
2013-08-06 20:22:00,70.9,66.8,16.92,East,92,0.0,3.0,87,0.00,,,0.02,VWS V13.01,2013-08-07 00:22:00,
2013-08-06 20:27:00,70.8,66.7,16.92,East,93,0.0,1.0,87,0.00,,,0.02,VWS V13.01,2013-08-07 00:27:00,
2013-08-06 20:32:00,70.7,66.7,16.92,East,92,0.0,2.0,87,0.00,,,0.02,VWS V13.01,2013-08-07 00:32:00,
2013-08-06 20:37:00,70.7,66.7,30.88,ENE,63,0.0,4.0,87,0.00,,,0.02,VWS V13.01,2013-08-07 00:37:00,
2013-08-06 20:42:00,70.7,66.7,30.88,East,92,0.0,4.0,87,0.00,,,0.02,VWS V13.01,2013-08-07 00:42:00,
2013-08-06 20:47:00,70.7,66.7,30.88,ENE,77,0.0,3.0,87,0.00,,,0.02,VWS V13.01,2013-08-07 00:47:00,
2013-08-06 20:52:00,70.8,66.7,16.92,East,79,3.0,4.0,87,0.00,,,0.02,VWS V13.01,2013-08-07 00:52:00,
2013-08-06 20:57:00,70.8,66.7,16.93,East,80,0.0,2.0,87,0.00,,,0.02,VWS V13.01,2013-08-07 00:57:00,
2013-08-06 21:02:00,70.8,66.7,18.62,East,86,2.0,4.0,87,0.00,,,0.02,VWS V13.01,2013-08-07 01:02:00,
2013-08-06 21:07:00,70.7,66.7,18.62,North,360,1.0,5.0,87,0.00,,,0.02,VWS V13.01,2013-08-07 01:07:00,
2013-08-06 21:12:00,70.6,66.9,18.62,ESE,121,0.0,3.0,88,0.00,,,0.02,VWS V13.01,2013-08-07 01:12:00,
2013-08-06 21:17:00,70.5,66.8,18.62,East,95,0.0,2.0,88,0.00,,,0.02,VWS V13.01,2013-08-07 01:17:00,
2013-08-06 21:22:00,70.3,66.6,18.62,East,87,0.0,2.0,88,0.00,,,0.02,VWS V13.01,2013-08-07 01:22:00,
2013-08-06 21:27:00,70.3,66.9,18.62,East,87,0.0,0.0,89,0.00,,,0.02,VWS V13.01,2013-08-07 01:27:00,
2013-08-06 21:32:00,70.2,66.8,18.62,ENE,75,0.0,2.0,89,0.00,,,0.02,VWS V13.01,2013-08-07 01:32:00,
2013-08-06 21:37:00,70.2,66.8,18.62,ENE,70,0.0,2.0,89,0.00,,,0.02,VWS V13.01,2013-08-07 01:37:00,
2013-08-06 21:42:00,70.2,66.8,18.62,ENE,68,1.0,2.0,89,0.00,,,0.02,VWS V13.01,2013-08-07 01:42:00,
2013-08-06 21:47:00,70.1,66.7,18.62,NNW,346,1.0,2.0,89,0.00,,,0.02,VWS V13.01,2013-08-07 01:47:00,
2013-08-06 21:52:00,70.1,66.7,18.62,NNW,346,0.0,2.0,89,0.00,,,0.02,VWS V13.01,2013-08-07 01:52:00,
2013-08-06 21:57:00,70.0,66.9,18.62,NNW,347,1.0,2.0,90,0.00,,,0.02,VWS V13.01,2013-08-07 01:57:00,
2013-08-06 22:02:00,70.0,66.9,18.62,ENE,73,1.0,4.0,90,0.00,,,0.02,VWS V13.01,2013-08-07 02:02:00,
2013-08-06 22:07:00,69.8,66.7,18.62,ENE,67,0.0,2.0,90,0.00,,,0.02,VWS V13.01,2013-08-07 02:07:00,
2013-08-06 22:12:00,69.8,66.7,19.17,ENE,67,0.0,0.0,90,0.00,,,0.02,VWS V13.01,2013-08-07 02:12:00,
2013-08-06 22:17:00,69.7,66.6,19.17,ENE,67,0.0,1.0,90,0.00,,,0.02,VWS V13.01,2013-08-07 02:17:00,
2013-08-06 22:22:00,69.8,66.7,19.17,East,96,0.0,4.0,90,0.00,,,0.02,VWS V13.01,2013-08-07 02:22:00,
2013-08-06 22:27:00,69.8,66.7,19.17,ESE,104,3.0,4.0,90,0.00,,,0.02,VWS V13.01,2013-08-07 02:27:00,
2013-08-06 22:32:00,69.7,66.6,19.17,ESE,103,0.0,1.0,90,0.00,,,0.02,VWS V13.01,2013-08-07 02:32:00,
2013-08-06 22:37:00,69.8,66.7,19.17,ENE,69,0.0,4.0,90,0.00,,,0.02,VWS V13.01,2013-08-07 02:37:00,
2013-08-06 22:42:00,69.8,66.7,19.17,ENE,69,0.0,2.0,90,0.00,,,0.02,VWS V13.01,2013-08-07 02:42:00,
2013-08-06 22:47:00,69.9,66.8,19.17,ESE,103,1.0,4.0,90,0.00,,,0.02,VWS V13.01,2013-08-07 02:47:00,
2013-08-06 22:52:00,69.9,66.8,19.17,ENE,62,0.0,4.0,90,0.00,,,0.02,VWS V13.01,2013-08-07 02:52:00,
2013-08-06 22:57:00,69.9,66.5,19.17,East,88,0.0,3.0,89,0.00,,,0.02,VWS V13.01,2013-08-07 02:57:00,
2013-08-06 23:02:00,69.9,66.5,19.17,ESE,109,0.0,4.0,89,0.00,,,0.02,VWS V13.01,2013-08-07 03:02:00,
2013-08-06 23:07:00,69.9,66.5,19.17,ESE,122,0.0,3.0,89,0.00,,,0.02,VWS V13.01,2013-08-07 03:07:00,
2013-08-06 23:12:00,69.9,66.5,19.17,ENE,63,2.0,4.0,89,0.00,,,0.02,VWS V13.01,2013-08-07 03:12:00,
2013-08-06 23:17:00,69.9,66.5,19.17,East,94,2.0,3.0,89,0.00,,,0.02,VWS V13.01,2013-08-07 03:17:00,
2013-08-06 23:22:00,69.9,66.5,19.17,East,94,0.0,2.0,89,0.00,,,0.02,VWS V13.01,2013-08-07 03:22:00,
2013-08-06 23:27:00,70.0,66.6,19.17,ENE,76,1.0,4.0,89,0.00,,,0.02,VWS V13.01,2013-08-07 03:27:00,
2013-08-06 23:32:00,70.0,66.6,19.17,East,86,0.0,4.0,89,0.00,,,0.02,VWS V13.01,2013-08-07 03:32:00,
2013-08-06 23:37:00,70.0,66.6,19.17,East,83,0.0,4.0,89,0.00,,,0.02,VWS V13.01,2013-08-07 03:37:00,
2013-08-06 23:42:00,70.0,66.6,19.17,East,83,0.0,2.0,89,0.00,,,0.02,VWS V13.01,2013-08-07 03:42:00,
2013-08-06 23:47:00,70.0,66.6,19.17,East,80,0.0,4.0,89,0.00,,,0.02,VWS V13.01,2013-08-07 03:47:00,
2013-08-06 23:52:00,70.0,66.6,19.17,East,80,0.0,1.0,89,0.00,,,0.02,VWS V13.01,2013-08-07 03:52:00,
2013-08-06 23:57:00,70.0,66.6,19.17,ENE,77,0.0,1.0,89,0.00,,,0.02,VWS V13.01,2013-08-07 03:57:00,